Theta_e
310 311 310 310 310 310 311 310 310 310 311 311 311 310 308 307 311 313 315 316 316 314 312 315 310 310 311 311 310 313 314 317 316 311 312 313 314 314 313 314 315 316 315 315 315 315 315
310 310 310 310 310 310 310 310 310 309 310 310 310 306 305 303 306 310 314 315 316 313 309 314 310 311 310 309 307 317 319 323 312 311 312 313 313 314 313 314 314 314 315 315 314 315 314
309 309 309 309 309 309 308 308 308 308 309 309 309 307 303 302 302 307 311 314 315 313 310 312 310 309 309 309 310 321 319 316 313 312 312 312 313 313 314 314 312 313 315 314 313 313 314
308 308 308 307 307 307 307 307 307 307 308 308 308 308 304 301 300 306 311 310 311 316 311 310 310 311 308 307 308 318 314 312 312 310 312 311 311 313 314 312 312 314 313 316 312 313 313
307 307 307 306 306 306 306 306 306 306 307 307 307 307 306 301 299 308 312 312 312 316 312 311 311 310 309 308 313 316 311 312 310 309 310 309 312 314 313 315 315 314 315 314 313 313 314
306 306 305 305 305 305 305 305 306 306 306 306 307 307 305 302 298 310 313 315 314 313 314 310 308 308 307 310 308 312 309 311 310 311 312 313 313 314 314 315 315 315 314 313 314 315 315
304 304 304 304 304 305 305 305 305 305 305 306 306 306 305 303 301 310 314 313 312 311 310 311 311 310 310 306 308 308 308 309 310 312 313 312 314 314 314 314 311 311 312 313 312 312 313
304 304 304 304 304 303 304 304 304 304 305 305 305 305 305 305 305 304 313 314 312 311 312 309 310 309 308 308 310 309 308 311 312 313 311 312 314 314 312 312 311 312 313 315 313 311 312
303 302 302 303 303 303 303 303 303 304 304 305 305 304 306 309 306 311 312 312 311 312 312 311 311 312 312 309 310 310 309 311 311 312 312 314 314 310 310 311 312 313 314 315 315 313 312
303 305 304 302 301 302 303 303 303 303 304 304 304 304 307 308 306 312 312 311 312 312 309 311 315 312 310 311 312 308 308 311 311 313 311 312 311 311 312 313 312 315 313 313 313 314 318
303 302 303 303 302 301 301 302 302 303 303 303 304 305 308 305 310 312 312 313 313 309 311 312 313 310 309 312 311 310 307 310 312 312 312 314 312 313 314 314 312 315 312 313 313 316 317
301 301 301 301 301 301 301 302 302 302 302 303 303 308 308 305 311 313 313 313 310 308 314 315 312 312 313 312 311 310 311 310 309 312 312 313 310 312 313 312 311 312 314 314 314 317 320
301 301 301 300 300 300 300 301 302 302 302 303 305 306 310 311 313 313 313 311 309 306 311 315 315 314 314 314 313 312 311 311 315 316 316 313 313 311 311 314 312 313 317 319 320 321 317
300 300 300 300 299 300 300 301 301 301 302 303 307 303 303 300 305 313 311 310 307 311 315 314 313 314 316 313 312 311 312 314 308 312 315 318 318 313 311 313 315 315 316 318 316 317 316
300 300 299 299 299 299 299 300 300 300 302 305 308 307 297 303 310 313 311 311 311 315 312 316 312 315 315 312 312 312 312 312 307 308 317 317 317 308 309 307 310 314 317 313 317 315 317
298 298 298 298 298 298 298 299 300 299 302 307 309 305 297 309 312 310 313 313 307 302 307 312 316 313 316 312 312 313 312 305 305 301 307 307 315 306 303 308 308 311 309 316 317 316 313
297 297 297 297 297 297 298 298 299 298 301 307 306 302 296 311 306 311 315 309 301 298 304 310 312 311 309 308 308 309 308 299 298 299 299 299 306 306 302 305 306 308 311 310 312 312 313
296 297 297 296 297 297 297 298 298 297 299 304 302 301 296 302 306 303 308 303 297 296 299 299 302 304 304 299 306 306 303 297 294 294 297 296 301 299 302 297 297 299 299 301 312 309 306
297 297 296 296 296 296 296 297 297 297 295 298 299 297 295 299 309 302 297 295 295 296 295 297 296 297 298 296 302 302 297 293 293 294 295 296 296 296 302 302 299 296 294 297 299 300 302
296 296 296 296 295 296 296 296 296 295 293 293 296 297 297 296 294 299 298 296 294 294 294 293 293 294 295 295 295 298 296 293 293 295 298 296 296 295 297 299 297 296 293 293 295 298 298
295 295 295 295 295 295 295 296 295 294 293 294 295 294 292 296 296 295 296 296 294 293 293 293 293 293 294 293 293 294 293 292 292 293 293 296 296 296 296 294 293 291 291 290 293 287 294
295 294 294 295 294 295 295 295 295 291 293 292 295 294 292 292 292 293 293 293 293 293 293 293 294 292 292 293 292 293 292 292 292 291 292 292 294 292 291 289 290 288 286 287 286 282 281
294 294 294 294 294 295 295 294 295 293 292 292 290 290 293 292 293 293 292 293 293 293 292 292 292 292 292 292 292 291 291 291 291 292 292 292 292 292 293 290 290 291 284 284 283 280 281
294 294 294 293 293 293 294 294 294 295 291 291 289 289 294 292 292 292 292 292 292 292 292 291 291 292 291 290 291 291 291 290 290 290 292 293 293 292 294 293 295 280 278 278 280 276 275
294 293 293 293 293 293 293 293 293 294 294 291 290 290 293 293 292 291 291 292 291 291 291 292 291 291 291 292 294 294 294 293 290 289 291 292 293 290 294 294 284 279 278 278 278 279 272
293 293 292 292 292 292 293 293 292 292 294 292 291 289 292 293 291 291 291 290 291 291 291 291 291 290 291 294 294 293 295 295 294 290 287 288 290 293 290 294 293 280 276 274 274 283 271
292 292 292 292 291 291 292 292 292 292 292 293 292 290 292 292 291 290 291 291 290 290 292 291 291 291 291 294 294 294 294 291 293 292 287 287 286 290 291 292 282 276 274 272 283 280 270
291 291 291 291 291 291 291 292 291 291 291 292 293 290 291 292 291 290 289 291 290 290 292 291 291 291 292 293 293 292 293 287 285 280 280 284 286 287 283 287 288 273 273 278 272 268 269
290 290 290 290 290 290 291 291 291 291 291 291 293 290 291 291 288 284 283 284 285 289 291 290 291 292 292 292 291 288 288 284 282 286 276 283 276 282 279 281 274 271 272 267 267 267 268
Wind_Speed
18 17 17 17 17 17 18 18 17 17 16 16 16 17 17 16 15 13 9 5 6 9 9 9 10 11 7 4 6 8 4 21 24 21 18 11 14 11 11 8 6 9 6 5 7 7 6
17 18 18 18 18 18 18 18 18 18 17 17 17 17 17 16 15 14 11 5 7 9 10 10 12 13 3 6 3 3 16 20 17 14 15 12 10 8 6 5 10 4 6 7 6 6 4
18 18 18 19 19 19 19 19 19 19 19 18 17 17 16 15 14 12 10 6 6 8 11 12 14 9 3 4 2 8 15 11 17 8 7 10 8 9 8 6 3 3 5 6 5 3 5
18 18 19 19 19 20 21 20 20 19 19 19 18 17 15 14 13 10 6 3 5 8 11 13 13 4 4 2 4 11 10 9 15 5 4 6 6 4 2 5 3 4 3 4 3 2 2
18 19 19 20 20 20 20 21 20 20 19 19 18 17 16 13 11 7 4 2 6 9 12 12 7 3 2 2 5 9 9 9 10 6 5 6 2 2 4 5 4 3 3 4 3 1 4
18 19 20 20 20 21 21 21 21 21 20 19 19 18 16 13 9 2 6 11 14 13 10 6 1 3 3 3 5 11 9 14 4 9 6 4 2 6 6 8 6 6 5 3 2 3 3
20 20 20 20 21 21 21 22 22 22 22 21 19 18 16 14 9 6 14 7 4 3 5 4 3 1 4 5 6 4 8 7 6 5 7 4 8 11 13 13 2 4 2 4 2 3 4
19 20 21 21 21 22 22 23 23 23 23 22 20 19 17 14 9 7 12 4 2 2 3 5 1 2 1 3 4 5 9 7 7 8 7 5 14 9 4 8 8 7 8 11 4 4 8
21 21 21 23 22 23 23 24 24 24 24 23 21 19 17 13 7 7 11 5 3 2 2 2 3 3 3 5 3 11 9 5 4 7 12 10 2 5 8 7 10 10 12 9 6 5 3
20 20 21 22 23 24 25 25 26 26 25 24 21 18 14 11 3 7 5 9 5 4 3 5 4 3 4 4 3 1 3 2 3 9 8 7 4 5 7 6 10 10 11 11 7 6 5
21 22 23 23 24 25 26 27 27 27 26 24 20 12 10 7 2 4 4 9 7 2 3 4 4 4 3 4 9 3 4 1 6 6 6 3 6 7 6 5 11 0 3 7 5 7 3
22 22 23 24 25 26 28 29 29 29 27 23 14 5 2 5 4 4 8 10 4 4 6 4 3 5 5 2 3 3 2 6 2 3 1 1 1 1 1 2 7 9 6 5 3 2 6
22 24 25 26 27 28 30 31 32 31 27 19 3 1 2 4 3 5 10 3 4 5 1 4 3 4 6 3 4 3 3 4 1 5 7 3 2 1 1 4 4 6 7 3 4 5 5
23 24 25 27 28 29 31 33 34 33 26 13 7 5 3 1 4 8 5 2 5 2 1 1 3 7 4 2 3 3 5 4 6 1 2 5 4 0 4 2 1 10 8 4 5 4 2
24 25 26 28 29 31 33 35 37 33 20 4 4 3 3 5 8 10 2 6 1 1 1 4 3 4 3 3 3 4 3 3 4 5 2 3 4 2 4 3 3 5 5 2 3 1 4
24 26 28 30 31 33 35 37 39 34 11 4 2 1 5 2 9 3 2 4 2 3 2 1 5 2 5 4 5 4 5 2 3 6 3 2 2 3 4 1 8 3 2 3 3 4 8
24 27 28 30 32 34 37 38 39 32 7 4 1 2 10 7 4 2 2 4 4 5 2 3 2 3 4 3 3 3 4 4 4 3 5 1 2 3 1 8 5 3 1 2 2 2 5
26 27 29 31 33 35 37 39 40 31 6 3 1 2 9 5 3 3 3 3 3 4 7 5 4 5 3 3 4 3 4 5 6 2 3 3 2 2 3 6 6 3 3 2 4 4 0
26 27 29 31 34 36 38 41 42 31 9 2 2 1 6 1 3 3 3 4 5 3 5 4 3 5 4 4 4 4 5 2 8 3 3 1 0 3 2 2 2 4 4 2 3 2 4
26 27 29 31 34 36 39 43 46 32 7 3 1 2 4 4 2 5 6 3 4 5 4 5 4 1 3 3 7 5 4 3 4 4 8 1 2 2 2 4 3 3 2 3 2 1 2
27 29 29 31 34 36 39 42 49 35 6 3 4 2 1 3 5 7 4 3 5 3 3 5 4 7 3 4 3 4 3 4 6 5 4 2 3 1 2 3 3 3 2 0 4 1 5
27 28 30 31 33 35 38 42 47 45 11 9 2 2 3 3 2 5 5 2 5 5 4 3 6 7 7 4 4 4 4 2 2 5 3 2 3 2 2 5 3 3 2 3 3 2 2
26 28 28 30 33 34 36 38 42 44 23 8 5 2 1 5 2 1 2 3 5 7 6 5 8 8 11 8 6 6 8 8 4 2 2 1 4 2 2 4 4 3 2 2 2 3 3
25 26 29 29 31 33 34 35 35 35 33 10 5 2 1 3 4 3 5 7 9 3 6 5 5 4 4 8 13 13 13 11 10 5 1 5 4 2 3 4 4 4 4 5 2 2 2
25 27 27 28 30 31 32 33 34 31 28 25 11 2 2 5 8 8 8 10 9 9 6 7 4 3 5 6 3 4 3 2 7 9 6 4 2 3 2 3 2 2 1 2 2 1 1
24 25 26 27 28 29 29 30 30 29 27 14 23 8 3 6 3 2 5 4 4 3 3 3 3 2 2 2 2 2 2 2 3 4 6 4 5 0 2 2 3 3 2 1 2 3 3
23 24 25 25 26 27 26 26 27 26 23 17 12 14 4 4 2 1 2 3 3 3 4 3 2 2 1 2 2 2 3 1 3 3 1 2 3 0 2 3 2 1 1 3 3 2 3
23 24 24 24 24 25 24 24 24 23 20 17 8 16 3 3 5 5 3 3 2 1 3 4 3 1 1 2 2 2 2 3 4 3 2 2 1 2 2 2 4 2 3 3 2 1 4
23 23 24 24 23 24 23 24 24 22 17 12 4 11 12 8 5 12 15 12 5 3 3 1 2 3 2 3 2 3 3 2 3 3 3 1 2 1 1 2 3 1 1 4 4 2 4
Wind_Direction
3 5 5 5 3 1 359 359 356 353 351 352 352 353 351 353 355 346 336 294 235 217 203 196 184 168 155 206 257 334 125 156 162 162 167 169 177 182 192 195 162 227 238 219 242 247 255
6 2 0 359 359 357 356 354 351 348 348 349 350 350 348 349 349 346 335 303 237 209 190 183 173 169 195 226 288 124 143 156 160 161 168 174 194 191 165 184 205 175 230 252 261 249 210
2 359 357 357 356 353 352 350 348 346 345 346 345 344 343 343 342 344 333 300 228 205 178 173 171 168 205 248 79 150 157 163 168 162 168 187 179 188 152 163 170 180 258 250 227 225 191
358 358 356 355 353 352 349 346 345 344 342 341 339 338 337 337 338 340 328 293 211 188 164 165 167 180 248 224 183 162 155 142 168 147 197 179 172 153 228 121 140 217 242 230 113 152 86
357 356 354 352 352 349 348 344 343 341 339 336 335 333 332 333 334 344 5 83 147 149 151 152 154 216 231 151 157 176 169 146 140 112 96 131 148 141 155 203 213 203 221 200 157 92 132
357 355 353 351 350 349 347 343 341 339 337 334 332 329 327 328 330 32 105 109 116 116 129 132 101 220 189 175 146 154 162 145 130 131 114 154 163 201 191 197 226 191 199 208 187 128 153
355 355 352 348 347 346 345 342 339 337 335 332 330 326 325 323 321 156 132 126 153 149 218 215 184 335 119 106 113 136 148 121 127 165 178 155 210 214 209 216 212 121 170 226 158 145 316
354 357 351 347 347 346 343 341 338 335 332 330 327 324 320 316 308 200 178 220 252 61 189 223 166 273 213 180 116 148 164 164 167 184 145 172 235 229 199 195 209 223 244 247 261 253 218
354 352 350 347 346 345 343 342 338 334 330 327 325 322 318 315 299 179 197 218 199 159 257 162 190 183 175 174 103 169 182 147 180 170 195 217 60 148 177 173 203 225 232 231 244 149 242
355 356 356 352 349 347 345 344 338 334 330 326 323 320 317 312 189 178 194 209 183 168 249 159 192 160 132 158 105 61 179 169 153 205 181 241 145 159 170 204 205 241 221 238 215 202 242
4 353 354 356 352 350 347 344 340 335 330 326 322 316 320 215 174 186 159 161 159 168 247 124 126 135 124 163 123 66 31 171 179 166 185 146 162 169 193 219 194 248 124 179 189 209 231
357 359 352 350 351 349 348 345 342 337 332 327 321 311 304 158 154 152 147 146 145 189 233 133 120 154 140 57 72 111 89 46 53 150 230 240 359 261 5 103 176 147 112 98 110 192 248
5 3 359 357 355 352 349 346 343 339 336 329 274 105 138 153 154 154 152 168 165 226 109 147 137 146 116 92 87 57 53 54 196 180 203 171 153 93 22 182 180 200 181 198 205 196 246
7 5 2 0 358 355 351 349 346 344 341 334 149 103 124 23 218 161 157 179 200 78 103 79 118 105 128 140 72 95 123 124 52 317 146 191 174 153 3 11 234 195 223 228 244 212 151
11 8 4 2 360 357 355 353 349 348 351 104 146 119 49 342 157 163 208 208 48 104 63 158 125 156 130 142 126 129 84 112 47 5 260 185 168 334 51 339 314 150 204 360 285 202 259
12 9 5 3 1 359 358 356 352 351 359 140 157 127 22 105 150 159 197 105 100 33 350 216 199 295 160 143 158 150 165 30 115 26 314 114 186 29 358 305 62 1 39 181 207 247 245
12 9 7 5 2 2 0 358 355 354 354 175 219 165 4 132 132 69 141 97 113 49 348 13 122 115 84 120 88 105 104 65 18 47 51 36 286 111 247 18 355 352 111 48 334 290 258
13 11 8 8 4 4 2 0 358 357 360 158 170 163 0 168 70 45 84 60 53 18 28 49 74 66 80 66 86 97 118 45 358 351 51 25 47 77 70 93 52 46 52 360 248 185 317
15 13 12 10 7 5 3 4 3 2 7 19 110 59 2 114 145 110 111 80 61 42 39 41 76 40 55 86 110 98 93 62 23 59 82 138 155 138 174 211 175 57 24 36 80 38 228
15 14 12 13 10 7 6 6 6 3 12 85 105 131 40 55 30 117 131 103 109 43 67 55 75 99 103 78 37 122 110 57 23 47 44 108 83 323 326 63 76 130 59 31 34 220 271
18 16 16 16 12 10 10 10 9 11 29 86 17 83 345 62 47 90 84 94 119 100 69 39 77 56 64 110 90 100 98 119 58 14 51 64 124 112 116 52 80 94 111 215 225 49 246
19 19 17 15 15 15 14 13 12 20 37 75 54 122 65 74 47 69 19 75 119 113 19 53 113 74 52 92 45 146 129 100 84 58 76 27 124 120 115 56 115 120 72 99 98 117 138
19 16 16 15 16 17 18 18 19 19 37 64 20 16 86 23 67 77 41 130 123 132 56 57 122 108 89 86 76 73 72 74 87 92 106 93 137 158 158 132 139 185 30 7 86 69 344
17 17 16 15 15 16 17 18 20 22 32 57 28 322 39 78 68 63 106 99 109 68 121 99 86 94 114 121 108 83 90 84 64 64 74 135 114 73 130 169 229 97 35 19 11 72 46
16 14 15 15 14 14 15 16 16 20 20 39 23 348 57 96 103 96 91 106 88 81 84 91 62 75 152 150 115 113 105 129 54 53 64 56 135 108 195 213 93 172 47 9 8 135 133
13 13 12 12 12 12 12 13 13 15 14 26 25 30 60 123 67 88 106 115 115 114 99 79 69 95 171 162 123 137 130 108 129 109 54 62 42 334 159 238 268 62 74 128 170 238 130
8 9 9 7 7 8 7 7 8 8 9 18 20 23 73 101 55 17 119 143 128 117 102 130 130 136 271 131 110 120 133 350 148 138 20 44 28 249 200 245 114 98 53 156 246 62 137
2 3 4 3 3 2 0 1 1 360 1 7 13 21 77 90 61 27 35 108 111 101 141 136 147 102 105 103 133 117 117 81 96 62 44 26 12 97 118 219 231 124 141 236 68 182 303
356 359 359 358 356 356 354 354 354 352 351 355 6 32 75 76 86 94 79 60 39 4 115 90 62 88 98 111 93 115 117 101 151 129 54 174 345 51 305 40 92 126 317 115 74 337 313